TimeEDT,TemperatureF,Dew PointF,Humidity,Sea Level PressureIn,VisibilityMPH,Wind Direction,Wind SpeedMPH,Gust SpeedMPH,PrecipitationIn,Events,Conditions,WindDirDegrees,DateUTC
12:13 AM,66.2,66.4,100,30.10,10.0,Calm,Calm,-,N/A,,Scattered Clouds,0,2013-07-08 04:13:00
12:34 AM,66.6,66.7,100,30.10,10.0,Calm,Calm,-,N/A,,Scattered Clouds,0,2013-07-08 04:34:00
12:53 AM,66.0,66.2,100,30.10,10.0,SW,3.5,-,N/A,,Scattered Clouds,220,2013-07-08 04:53:00
1:13 AM,67.1,67.1,100,30.10,10.0,Calm,Calm,-,N/A,,Scattered Clouds,0,2013-07-08 05:13:00
1:33 AM,66.4,66.4,100,30.09,10.0,Calm,Calm,-,N/A,,Scattered Clouds,0,2013-07-08 05:33:00
1:54 AM,66.6,66.7,100,30.09,10.0,Calm,Calm,-,N/A,,Clear,0,2013-07-08 05:54:00
2:14 AM,65.3,65.5,100,30.09,10.0,Calm,Calm,-,N/A,,Clear,0,2013-07-08 06:14:00
2:33 AM,-9999,-9999,N/A,30.09,10.0,Calm,Calm,-,N/A,,Scattered Clouds,0,2013-07-08 06:33:00
2:53 AM,65.7,65.8,100,30.09,10.0,Calm,Calm,-,N/A,,Clear,0,2013-07-08 06:53:00
3:14 AM,65.7,65.1,98,30.10,10.0,SW,3.5,-,N/A,,Scattered Clouds,230,2013-07-08 07:14:00
3:33 AM,65.7,64.2,95,30.10,10.0,Calm,Calm,-,N/A,,Mostly Cloudy,0,2013-07-08 07:33:00
3:53 AM,65.7,64.2,95,30.09,10.0,SW,4.6,-,N/A,,Mostly Cloudy,230,2013-07-08 07:53:00
4:13 AM,65.7,63.5,93,30.08,10.0,WSW,3.5,-,N/A,,Scattered Clouds,250,2013-07-08 08:13:00
4:33 AM,64.9,61.7,89,30.08,10.0,Calm,Calm,-,N/A,,Scattered Clouds,0,2013-07-08 08:33:00
4:54 AM,63.0,63.1,100,30.09,10.0,Calm,Calm,-,N/A,,Clear,0,2013-07-08 08:54:00
5:14 AM,63.7,63.7,100,30.09,10.0,Calm,Calm,-,N/A,,Clear,0,2013-07-08 09:14:00
5:33 AM,63.5,63.5,100,30.10,10.0,SW,3.5,-,N/A,,Scattered Clouds,220,2013-07-08 09:33:00
5:53 AM,64.0,63.5,98,30.10,10.0,WSW,4.6,-,N/A,,Mostly Cloudy,240,2013-07-08 09:53:00
6:14 AM,64.4,63.7,98,30.10,10.0,WSW,3.5,-,N/A,,Mostly Cloudy,240,2013-07-08 10:14:00
6:33 AM,63.5,63.1,99,30.10,10.0,Calm,Calm,-,N/A,,Scattered Clouds,0,2013-07-08 10:33:00
6:53 AM,63.7,63.9,100,30.10,10.0,Calm,Calm,-,N/A,,Clear,0,2013-07-08 10:53:00
7:14 AM,63.9,63.9,100,30.11,10.0,Calm,Calm,-,N/A,,Clear,0,2013-07-08 11:14:00
7:33 AM,64.9,64.4,98,30.12,10.0,SW,3.5,-,N/A,,Scattered Clouds,230,2013-07-08 11:33:00
7:53 AM,65.3,64.6,98,30.12,10.0,Calm,Calm,-,N/A,,Overcast,0,2013-07-08 11:53:00
8:13 AM,65.7,64.9,98,30.12,10.0,Calm,Calm,-,N/A,,Overcast,0,2013-07-08 12:13:00
8:33 AM,65.8,65.5,99,30.12,10.0,Calm,Calm,-,N/A,,Mostly Cloudy,0,2013-07-08 12:33:00
8:54 AM,67.6,66.2,95,30.12,10.0,Calm,Calm,-,N/A,,Scattered Clouds,0,2013-07-08 12:54:00
9:14 AM,69.6,65.7,87,30.12,10.0,SW,4.6,-,N/A,,Clear,220,2013-07-08 13:14:00
9:33 AM,71.4,65.8,82,30.12,10.0,SW,3.5,-,N/A,,Clear,220,2013-07-08 13:33:00
9:53 AM,73.0,66.2,79,30.12,10.0,WSW,4.6,-,N/A,,Clear,240,2013-07-08 13:53:00
10:14 AM,74.3,66.2,76,30.13,10.0,West,9.2,-,N/A,,Clear,260,2013-07-08 14:14:00
10:33 AM,75.0,66.0,73,30.12,10.0,West,9.2,-,N/A,,Scattered Clouds,270,2013-07-08 14:33:00
10:53 AM,75.6,66.0,72,30.12,10.0,SW,3.5,-,N/A,,Scattered Clouds,220,2013-07-08 14:53:00
11:14 AM,76.1,65.3,69,30.13,10.0,WSW,5.8,-,N/A,,Clear,240,2013-07-08 15:14:00
11:33 AM,77.0,65.1,67,30.13,10.0,SW,6.9,-,N/A,,Clear,220,2013-07-08 15:33:00
11:53 AM,77.7,66.2,68,30.13,10.0,WSW,4.6,-,N/A,,Scattered Clouds,250,2013-07-08 15:53:00
12:13 PM,78.6,64.6,62,30.13,10.0,WSW,6.9,-,N/A,,Scattered Clouds,250,2013-07-08 16:13:00
12:33 PM,78.8,63.9,60,30.12,10.0,WSW,5.8,-,N/A,,Clear,250,2013-07-08 16:33:00
12:54 PM,79.9,64.8,60,30.12,10.0,West,4.6,-,N/A,,Clear,280,2013-07-08 16:54:00
1:13 PM,79.9,63.5,57,30.12,10.0,WSW,5.8,-,N/A,,Clear,250,2013-07-08 17:13:00
1:33 PM,81.3,64.6,57,30.11,10.0,WSW,3.5,-,N/A,,Scattered Clouds,240,2013-07-08 17:33:00
1:53 PM,81.3,65.8,59,30.11,10.0,SW,8.1,-,N/A,,Scattered Clouds,230,2013-07-08 17:53:00
2:14 PM,81.7,66.0,59,30.10,10.0,SSW,4.6,-,N/A,,Scattered Clouds,200,2013-07-08 18:14:00
2:33 PM,80.8,65.3,59,30.09,10.0,WSW,5.8,-,N/A,,Mostly Cloudy,240,2013-07-08 18:33:00
2:53 PM,79.9,64.4,59,30.09,10.0,WSW,4.6,-,N/A,,Overcast,250,2013-07-08 18:53:00
3:14 PM,81.7,66.7,60,30.08,10.0,Calm,Calm,-,N/A,,Mostly Cloudy,0,2013-07-08 19:14:00
3:33 PM,82.2,65.7,57,30.08,10.0,SW,6.9,-,N/A,,Clear,220,2013-07-08 19:33:00
3:53 PM,81.5,66.6,60,30.08,10.0,SW,4.6,-,N/A,,Clear,230,2013-07-08 19:53:00
4:13 PM,81.5,66.7,61,30.07,10.0,Calm,Calm,-,N/A,,Clear,0,2013-07-08 20:13:00
4:33 PM,82.8,66.9,59,30.08,10.0,SW,6.9,-,N/A,,Clear,230,2013-07-08 20:33:00
4:54 PM,81.3,66.0,60,30.08,10.0,SW,3.5,-,N/A,,Clear,230,2013-07-08 20:54:00
5:13 PM,80.8,66.4,61,30.08,10.0,Calm,Calm,-,N/A,,Clear,0,2013-07-08 21:13:00
5:33 PM,80.2,67.5,65,30.07,10.0,Calm,Calm,-,N/A,,Clear,0,2013-07-08 21:33:00
5:53 PM,79.7,67.6,66,30.07,10.0,Calm,Calm,-,N/A,,Scattered Clouds,0,2013-07-08 21:53:00
6:14 PM,79.0,68.0,69,30.06,10.0,SSW,6.9,-,N/A,,Mostly Cloudy,210,2013-07-08 22:14:00
6:33 PM,77.7,67.5,71,30.07,10.0,SW,3.5,-,N/A,,Mostly Cloudy,220,2013-07-08 22:33:00
6:54 PM,76.1,66.2,71,30.08,10.0,West,12.7,18.4,N/A,,Mostly Cloudy,270,2013-07-08 22:54:00
7:13 PM,71.4,67.8,88,30.10,7.0,SW,6.9,-,0.02,Rain,Rain,230,2013-07-08 23:13:00
7:33 PM,69.4,68.9,98,30.09,10.0,Calm,Calm,-,0.02,Rain,Light Rain,0,2013-07-08 23:33:00
7:54 PM,68.9,68.9,100,30.08,10.0,SE,5.8,-,0.03,,Mostly Cloudy,140,2013-07-08 23:54:00
8:14 PM,68.9,68.9,100,30.08,10.0,SSE,4.6,-,N/A,,Mostly Cloudy,160,2013-07-09 00:14:00
8:33 PM,69.1,69.3,100,30.12,3.0,WSW,6.9,23.0,0.20,Rain,Heavy Rain,240,2013-07-09 00:33:00
8:53 PM,68.2,68.4,100,30.12,7.0,WSW,5.8,-,0.29,Rain,Rain,250,2013-07-09 00:53:00
9:13 PM,68.2,68.4,100,30.11,7.0,WSW,4.6,-,0.03,Rain,Light Rain,250,2013-07-09 01:13:00
9:33 PM,68.2,68.4,100,30.11,7.0,WSW,4.6,-,0.04,Rain,Light Rain,240,2013-07-09 01:33:00
9:53 PM,68.0,68.2,100,30.11,7.0,Calm,Calm,-,0.05,Rain,Light Rain,0,2013-07-09 01:53:00
10:13 PM,67.6,68.0,100,30.11,7.0,Calm,Calm,-,N/A,Rain,Rain,0,2013-07-09 02:13:00
10:33 PM,67.6,68.0,100,30.11,5.0,Calm,Calm,-,N/A,,Mostly Cloudy,0,2013-07-09 02:33:00
10:53 PM,67.5,67.6,100,30.11,7.0,Calm,Calm,-,N/A,,Overcast,0,2013-07-09 02:53:00
11:13 PM,68.0,68.0,100,30.11,7.0,Calm,Calm,-,0.01,Rain,Light Rain,0,2013-07-09 03:13:00
11:34 PM,67.3,67.5,100,30.11,7.0,Calm,Calm,-,0.03,Rain,Rain,0,2013-07-09 03:34:00
11:53 PM,67.3,67.5,100,30.10,7.0,Calm,Calm,-,0.03,Rain,Light Rain,0,2013-07-09 03:53:00